Location: Krakow
(50.0830°N, 19.9170°E)
Time: 18:54:01
(UTC+01:00)

Vanguard 3 - Visible Passes

Search period start: 07 February 2023 00:00
Search period end: 17 February 2023 00:00
Orbit: 509 x 3252 km, 33.3° (Epoch: 06 February)

Date Brightness Start Highest point End Pass type
(mag) Time Alt. Az. Time Alt. Az. Time Alt. Az.
07 Feb 9.8 17:32:05 10° SSW 17:38:14 24° SSE 17:47:21 10° ESE visible
07 Feb 9.8 19:41:04 10° WSW 19:49:45 35° S 19:53:26 31° SSE visible
07 Feb 10.4 21:52:16 10° WSW 21:57:53 25° SW 21:57:53 25° SW visible
08 Feb 9.7 18:27:00 10° SW 18:34:07 30° SSE 18:42:16 16° ESE visible
08 Feb 10.0 20:37:06 10° WSW 20:46:18 32° S 20:46:43 32° S visible
08 Feb 10.9 22:49:50 10° WSW 22:51:10 13° WSW 22:51:10 13° WSW visible
09 Feb 9.7 17:13:34 10° SSW 17:19:03 23° SSE 17:27:02 10° ESE visible
09 Feb 9.8 19:22:34 10° WSW 19:30:22 32° S 19:35:34 24° SE visible
09 Feb 10.4 21:33:47 10° WSW 21:40:01 24° SW 21:40:01 24° SW visible
10 Feb 9.6 18:08:33 10° SW 18:14:54 28° SSE 18:24:27 10° ESE visible
10 Feb 10.0 20:18:39 10° WSW 20:26:49 29° S 20:28:54 27° S visible
10 Feb 10.9 22:31:43 10° WSW 22:33:21 13° WSW 22:33:21 13° WSW visible
11 Feb 9.8 19:04:09 10° SW 19:11:04 29° S 19:17:48 18° SE visible
11 Feb 10.4 21:15:29 10° WSW 21:22:16 22° SSW 21:22:16 22° SSW visible
12 Feb 9.6 17:50:10 10° SW 17:55:45 25° S 18:04:09 10° ESE visible
12 Feb 10.1 20:00:19 10° WSW 20:07:26 25° S 20:11:13 21° SSE visible
12 Feb 10.8 22:14:09 10° SW 22:15:40 12° SW 22:15:40 12° SW visible
13 Feb 9.8 18:45:49 10° SW 18:51:51 25° S 19:00:13 11° SE visible
13 Feb 10.4 20:57:26 10° WSW 21:03:54 18° SSW 21:04:40 18° SSW visible
14 Feb 9.6 17:31:49 10° SW 17:36:41 22° S 17:43:41 10° SE visible
14 Feb 10.1 19:42:08 10° SW 19:48:09 21° SSW 19:53:42 15° SSE visible
15 Feb 9.8 18:27:35 10° SW 18:32:43 21° S 18:40:03 10° SE visible
15 Feb 10.5 20:39:51 10° SW 20:44:31 14° SSW 20:47:17 13° S visible
16 Feb 10.2 19:24:11 10° SW 19:28:55 16° SSW 19:35:09 10° SSE visible
